Location: Luz Observatory
(34.5000°N, 117.2833°W)
Time: 04:13:54
(UTC-07:00)

Okean 3 Rocket - Visible Passes

Search period start: 05 May 2015 00:00
Search period end: 15 May 2015 00:00
Orbit: 616 x 646 km, 82.5° (Epoch: 04 May)

Date Brightness Start Highest point End Pass type
(mag) Time Alt. Az. Time Alt. Az. Time Alt. Az.
05 May 6.6 01:03:39 12° NNE 01:03:39 12° NNE 01:04:06 10° NNE visible
06 May 6.5 01:24:33 15° N 01:24:33 15° N 01:25:20 10° N visible
07 May 6.4 01:45:27 14° NNW 01:45:27 14° NNW 01:46:07 10° NNW visible
08 May 6.7 00:28:56 11° NNE 00:28:56 11° NNE 00:29:06 10° NNE visible
09 May 6.5 00:49:48 15° NNE 00:49:48 15° NNE 00:50:32 10° N visible
10 May 6.4 01:10:39 15° N 01:10:39 15° N 01:11:31 10° N visible
11 May 6.5 01:31:30 12° NNW 01:31:30 12° NNW 01:31:58 10° NNW visible
12 May 6.4 00:14:56 14° NNE 00:14:56 14° NNE 00:15:40 10° NNE visible
13 May 6.3 00:35:45 17° N 00:35:45 17° N 00:36:49 10° N visible
14 May 6.4 00:56:33 15° NNW 00:56:33 15° NNW 00:57:31 10° NNW visible
14 May 6.3 23:39:57 14° NNE 23:39:57 14° NNE 23:40:42 10° NNE visible
